Flag for Germany Weather past 2 weeks in Soltau, Lower Saxony, Germany

Now
82 °F

Partly sunny.


Feels Like: 84 °F
Forecast: 66 / 89 °F
Wind: 2 mph from North

Location: Fassberg

Current Time: Jul 4, 2015 at 10:34:41 AM

Latest Report: Jul 4, 2015 at 9:20 AM


Visibility: N/A

Pressure: 30.12 "Hg

Humidity: 55%

Dew point: 64 °F

Location of SoltauLocation

Historic Weather in Soltau — Graph

°F

Soltau temperature yesterday

Maximum temperature yesterday: 90 °F (at 5:20 PM)
Minimum temperature yesterday: 64 °F (at 4:20 AM)
Average temperature yesterday: 76 °F

Past Weeks' High & Low Weather Summary

 TemperatureHumidityPressure
High91 °F (Jul 2, 5:00 PM)100% (Jun 21, 4:20 AM)30.30 "Hg (Jun 21, 4:20 AM)
Low39 °F (Jun 21, 4:20 AM)28% (Jul 2, 5:00 PM)29.65 "Hg (Jun 22, 9:20 PM)
Average62 °F71%30.05 "Hg
* Reported Jun 19 9:20 AM — Jul 4 9:20 AM, Soltau, Weather by CustomWeather, © 2015

Note: Actual official high and low records may vary slightly from our data, if they occured in-between our weather recording intervals... More about our weather records

Advertising

Soltau weather history for previous 24 hours

 ConditionsComfort  
Time TempWeatherWind HumidityBarometerVisibility
9:20 AM
Sat, Jul 4
82 °FPartly sunny.2 mph55%30.12 "HgN/A
8:20 AM75 °FPartly sunny.6 mph65%30.12 "HgN/A
7:20 AM72 °FPassing clouds.6 mph73%30.12 "HgN/A
6:20 AM66 °FPassing clouds.7 mph83%30.12 "HgN/A
5:20 AM66 °FPassing clouds.2 mph83%30.15 "HgN/A
4:20 AM66 °FPassing clouds.5 mph83%30.15 "HgN/A
3:20 AM68 °FPassing clouds.1 mph78%30.18 "HgN/A
2:20 AM68 °FMild.5 mph83%30.18 "HgN/A
1:20 AM70 °FMild.2 mph78%30.21 "HgN/A
12:20 AM70 °FPassing clouds.5 mph78%30.21 "HgN/A
11:20 PM
Fri, Jul 3
73 °FPassing clouds.3 mph69%30.21 "HgN/A
10:20 PM75 °FPassing clouds.5 mph65%30.21 "HgN/A
9:20 PM81 °FPassing clouds.6 mph54%30.21 "HgN/A
8:20 PM86 °FPassing clouds.6 mph46%30.21 "HgN/A
7:20 PM88 °FPassing clouds.8 mph40%30.21 "HgN/A
6:20 PM88 °FScattered clouds.8 mph43%30.21 "HgN/A
5:20 PM90 °FScattered clouds.6 mph38%30.24 "HgN/A
4:20 PM88 °FScattered clouds.7 mph43%30.24 "HgN/A
3:20 PM86 °FPartly sunny.7 mph43%30.24 "HgN/A
2:20 PM82 °FPartly sunny.5 mph51%30.24 "HgN/A
1:20 PM81 °FPartly sunny.6 mph62%30.24 "HgN/A
12:20 PM79 °FBroken clouds.7 mph65%30.24 "HgN/A
11:20 AM75 °FBroken clouds.3 mph69%30.24 "HgN/A
10:20 AM72 °FBroken clouds.10 mph78%30.24 "HgN/A
Weather by CustomWeather, © 2015

See weather overviewHow to use our weather pages